K4DNM Weather Reports


Display with metric or nautical units.
time (UTC)temp
F
wind
direction
speed
MPH
gust
MPH
rain 1hr
in
rain 24hr
in
rain mn
in
humidity
%
barometer
mb
20260831114943 73 0 0.0 2.0 0.00 0.00 0.00 98 1018.4
20260831114442 73 175 0.0 2.0 0.00 0.00 0.00 98 1018.5
20260831113943 72 0 0.0 1.0 0.00 0.00 0.00 98 1018.5
20260831113442 72 0 0.0 1.0 0.00 0.00 0.00 98 1018.5
20260831112944 71 0 0.0 1.0 0.00 0.00 0.00 98 1018.6
20260831112702 71 0 0.0 1.0 0.00 0.00 0.00 98 1018.5
20260831112547 71 0 0.0 1.0 0.00 0.00 0.00 98 1018.5
20260831111943 70 0 0.0 0.0 0.00 0.00 0.00 98 1018.6
20260831111443 70 0 0.0 0.0 0.00 0.00 0.00 98 1018.5
20260831110943 69 0 0.0 0.0 0.00 0.00 0.00 98 1018.5
20260831110443 69 0 0.0 0.0 0.00 0.00 0.00 98 1018.4
20260831105943 69 0 0.0 1.0 0.00 0.00 0.00 98 1018.4
20260831105429 69 0 0.0 1.0 0.00 0.00 0.00 98 1018.4
20260831104929 69 0 0.0 1.0 0.00 0.00 0.00 98 1018.3
20260831104430 69 0 0.0 1.0 0.00 0.00 0.00 98 1018.3
20260831103930 69 158 0.0 1.0 0.00 0.00 0.00 98 1018.3
20260831103429 69 0 0.0 1.0 0.00 0.00 0.00 98 1018.3
20260831102930 69 0 0.0 0.0 0.00 0.00 0.00 98 1018.3
20260831102431 69 0 0.0 0.0 0.00 0.00 0.00 98 1018.2
20260831101930 69 0 0.0 1.0 0.00 0.00 0.00 98 1018.1
20260831101650 69 0 0.0 1.0 0.00 0.00 0.00 98 1018.0
20260831101535 69 0 0.0 1.0 0.00 0.00 0.00 98 1018.0
20260831100943 69 0 0.0 0.0 0.00 0.00 0.00 98 1018.0
20260831100430 69 0 0.0 1.0 0.00 0.00 0.00 98 1018.0
20260831095915 69 0 0.0 1.0 0.00 0.00 0.00 98 1018.0
20260831095417 69 0 0.0 0.0 0.00 0.00 0.00 98 1018.1
20260831094916 69 0 0.0 0.0 0.00 0.00 0.00 98 1018.1
20260831094416 69 0 0.0 0.0 0.00 0.00 0.00 98 1018.1
20260831093916 69 0 0.0 0.0 0.00 0.00 0.00 98 1018.1
20260831093416 69 0 0.0 1.0 0.00 0.00 0.00 98 1018.1
20260831093139 69 0 0.0 1.0 0.00 0.00 0.00 98 1018.1
20260831093021 69 0 0.0 1.0 0.00 0.00 0.00 98 1018.1
20260831092420 70 0 0.0 0.0 0.00 0.00 0.00 98 1018.1
20260831091920 70 0 0.0 1.0 0.00 0.00 0.00 98 1018.1
20260831091420 70 0 0.0 2.0 0.00 0.00 0.00 98 1018.0
20260831090918 70 0 0.0 2.0 0.00 0.00 0.00 98 1018.0
20260831090404 70 0 0.0 1.0 0.00 0.00 0.00 98 1018.0
20260831085904 70 0 0.0 1.0 0.00 0.00 0.00 98 1018.0
20260831085405 70 179 0.0 2.0 0.00 0.00 0.00 98 1017.9
20260831084904 70 0 1.0 2.0 0.00 0.00 0.00 98 1017.9
20260831084405 70 196 1.0 2.0 0.00 0.00 0.00 98 1017.9
20260831083905 70 0 0.0 2.0 0.00 0.00 0.00 98 1017.9
20260831083405 70 0 0.0 0.0 0.00 0.00 0.00 98 1018.0
20260831082905 70 0 0.0 0.0 0.00 0.00 0.00 98 1017.9
20260831082405 70 0 0.0 0.0 0.00 0.00 0.00 98 1017.9
20260831081905 70 0 0.0 0.0 0.00 0.00 0.00 98 1018.0
20260831081404 70 0 0.0 0.0 0.00 0.00 0.00 98 1018.0
20260831080849 70 0 0.0 0.0 0.00 0.00 0.00 98 1018.1
20260831080617 71 0 0.0 0.0 0.00 0.00 0.00 98 1018.1
20260831080455 71 0 0.0 0.0 0.00 0.00 0.00 98 1018.1
20260831075850 71 0 0.0 0.0 0.00 0.00 0.00 98 1018.1
20260831075351 71 0 0.0 0.0 0.00 0.00 0.00 98 1018.1
20260831074853 71 0 0.0 0.0 0.00 0.00 0.00 98 1018.1
20260831074849 71 0 0.0 0.0 0.00 0.00 0.00 98 1018.2
20260831074351 71 0 0.0 0.0 0.00 0.00 0.00 98 1018.2
20260831073849 71 0 0.0 2.0 0.00 0.00 0.00 98 1018.3
20260831073351 71 167 0.0 2.0 0.00 0.00 0.00 98 1018.3
20260831072849 70 0 0.0 1.0 0.00 0.00 0.00 98 1018.3
20260831072350 70 0 0.0 1.0 0.00 0.00 0.00 98 1018.3
20260831071833 70 0 0.0 1.0 0.00 0.00 0.00 98 1018.3
20260831071334 70 137 0.0 1.0 0.00 0.00 0.00 98 1018.4
20260831071311 71 0 0.0 0.0 0.00 0.00 0.00 98 1018.4
20260831070935 71 0 0.0 0.0 0.00 0.00 0.00 98 1018.4
20260831070321 71 0 0.0 0.0 0.00 0.00 0.00 98 1018.3
20260831070041 71 0 0.0 1.0 0.00 0.00 0.00 98 1018.3
20260831065926 71 0 0.0 1.0 0.00 0.00 0.00 98 1018.3
20260831065543 71 0 0.0 1.0 0.00 0.00 0.00 98 1018.3
20260831065426 71 0 0.0 1.0 0.00 0.00 0.00 98 1018.3
20260831064822 71 0 0.0 0.0 0.00 0.00 0.00 98 1018.4
20260831064319 72 0 0.0 0.0 0.00 0.00 0.00 98 1018.5
20260831063819 72 0 0.0 3.0 0.00 0.00 0.00 98 1018.4
20260831063319 72 0 1.0 3.0 0.00 0.00 0.00 98 1018.4
20260831062819 71 0 0.0 3.0 0.00 0.00 0.00 98 1018.4
20260831062319 71 0 0.0 2.0 0.00 0.00 0.00 97 1018.5
20260831061819 71 0 0.0 2.0 0.00 0.00 0.00 98 1018.4
20260831061543 71 0 0.0 1.0 0.00 0.00 0.00 97 1018.5
20260831061423 71 0 0.0 1.0 0.00 0.00 0.00 97 1018.5
20260831060819 71 0 0.0 2.0 0.00 0.00 0.00 97 1018.5
20260831060320 71 0 0.0 2.0 0.00 0.00 0.00 97 1018.5
20260831055819 71 0 0.0 2.0 0.00 0.00 0.00 97 1018.5
20260831055321 71 0 0.0 2.0 0.00 0.00 0.00 97 1018.5
20260831054818 71 0 1.0 4.0 0.00 0.00 0.00 97 1018.6
20260831054320 71 183 1.0 4.0 0.00 0.00 0.00 97 1018.6
20260831053818 71 172 0.0 3.0 0.00 0.00 0.00 97 1018.6
20260831053319 71 0 0.0 2.0 0.00 0.00 0.00 97 1018.6
20260831052818 71 0 0.0 1.0 0.00 0.00 0.00 97 1018.6
20260831052318 71 0 0.0 0.0 0.00 0.00 0.00 97 1018.6
20260831051818 71 0 0.0 1.0 0.00 0.00 0.00 97 1018.6
20260831051319 71 0 0.0 1.0 0.00 0.00 0.00 97 1018.6
20260831050818 72 0 0.0 0.0 0.00 0.00 0.00 97 1018.6
20260831050319 72 0 0.0 2.0 0.00 0.00 0.00 97 1018.6
20260831045819 72 0 0.0 2.0 0.00 0.00 0.00 97 1018.7
20260831045318 72 177 0.0 2.0 0.00 0.00 0.00 97 1018.7
20260831044819 72 0 0.0 1.0 0.00 0.00 0.00 97 1018.7
20260831044314 72 112 0.0 1.0 0.00 0.00 0.00 97 1018.7
20260831043816 72 0 0.0 1.0 0.00 0.00 0.00 97 1018.7
20260831043315 72 194 0.0 2.0 0.00 0.00 0.00 97 1018.8
20260831042815 72 0 0.0 2.0 0.00 0.00 0.00 97 1018.9
20260831042539 72 0 0.0 1.0 0.00 0.00 0.00 97 1018.9
20260831042419 72 0 0.0 1.0 0.00 0.00 0.00 97 1018.9
20260831041815 72 0 0.0 1.0 0.00 0.00 0.00 97 1018.9
20260831041315 72 0 0.0 1.0 0.00 0.00 0.00 97 1018.9
20260831040814 73 303 0.0 1.0 0.00 0.00 0.00 97 1018.9
20260831040313 73 0 0.0 0.0 0.00 0.00 0.00 97 1018.9
20260831040039 73 0 0.0 0.0 0.00 0.00 0.00 97 1018.9
20260831035917 73 0 0.0 0.0 0.00 0.00 0.00 97 1018.9
20260831035313 73 0 0.0 1.0 0.00 0.00 0.00 97 1019.0
20260831034809 73 0 0.0 1.0 0.00 0.00 0.00 97 1018.9
20260831034310 73 0 0.0 0.0 0.00 0.00 0.00 97 1018.9
20260831033810 73 0 0.0 0.0 0.00 0.00 0.00 97 1018.9
20260831033310 73 0 0.0 5.0 0.00 0.00 0.00 97 1018.8
20260831032810 73 0 0.0 5.0 0.00 0.00 0.00 97 1018.9
20260831032534 73 0 0.0 2.0 0.00 0.00 0.00 97 1019.0
20260831032415 73 0 0.0 2.0 0.00 0.00 0.00 97 1019.0
20260831031811 74 0 0.0 2.0 0.00 0.00 0.00 97 1019.0
20260831031312 74 0 0.0 1.0 0.00 0.00 0.00 97 1019.0
20260831030812 74 0 0.0 2.0 0.00 0.00 0.00 97 1019.0
20260831030310 74 207 0.0 2.0 0.00 0.00 0.00 96 1019.0
20260831025807 74 187 0.0 2.0 0.00 0.00 0.00 96 1019.0
20260831025308 74 0 0.0 2.0 0.00 0.00 0.00 96 1018.9
20260831024805 74 0 0.0 1.0 0.00 0.00 0.00 96 1018.9
20260831024306 74 0 0.0 1.0 0.00 0.00 0.00 96 1018.9
20260831023806 74 0 0.0 0.0 0.00 0.00 0.00 96 1019.0
20260831023306 74 0 0.0 0.0 0.00 0.00 0.00 96 1019.0
20260831022806 74 0 0.0 1.0 0.00 0.00 0.00 96 1019.0
20260831022307 74 0 0.0 1.0 0.00 0.00 0.00 96 1018.9
20260831021806 74 0 0.0 1.0 0.00 0.00 0.00 96 1018.9
20260831021306 74 170 0.0 1.0 0.00 0.00 0.00 96 1018.9
20260831020806 74 0 0.0 1.0 0.00 0.00 0.00 96 1018.9
20260831020529 74 189 0.0 1.0 0.00 0.00 0.00 96 1018.8
20260831020409 74 189 0.0 1.0 0.00 0.00 0.00 96 1018.8
20260831015806 74 0 0.0 2.0 0.00 0.00 0.00 95 1018.9
20260831015306 74 0 0.0 2.0 0.00 0.00 0.00 95 1018.9
20260831014800 75 0 0.0 0.0 0.00 0.00 0.00 95 1018.8
20260831014300 75 0 0.0 0.0 0.00 0.00 0.00 95 1018.8
20260831013800 75 0 0.0 1.0 0.00 0.00 0.00 95 1018.7
20260831013300 75 0 0.0 1.0 0.00 0.00 0.00 95 1018.6
20260831012800 75 0 0.0 1.0 0.00 0.00 0.00 95 1018.6
20260831012736 75 0 0.0 0.0 0.00 0.00 0.00 95 1018.6
20260831012404 75 0 0.0 0.0 0.00 0.00 0.00 95 1018.6
20260831011801 75 0 0.0 2.0 0.00 0.00 0.00 94 1018.6
20260831011301 75 0 0.0 2.0 0.00 0.00 0.00 94 1018.6
20260831010758 75 190 0.0 1.0 0.00 0.00 0.00 94 1018.5
20260831010520 76 0 0.0 0.0 0.00 0.00 0.00 94 1018.4
20260831010400 75 175 0.0 1.0 0.00 0.00 0.00 94 1018.4
20260831005902 76 0 0.0 0.0 0.00 0.00 0.00 94 1018.4
20260831005258 76 0 0.0 0.0 0.00 0.00 0.00 94 1018.4
20260831004754 76 0 0.0 1.0 0.00 0.00 0.00 93 1018.4
20260831004525 76 0 0.0 1.0 0.00 0.00 0.00 93 1018.4
20260831004359 76 0 0.0 1.0 0.00 0.00 0.00 93 1018.4
20260831003755 76 0 0.0 1.0 0.00 0.00 0.00 93 1018.4
20260831003255 76 0 0.0 2.0 0.00 0.00 0.00 93 1018.4
20260831002758 76 188 1.0 2.0 0.00 0.00 0.00 93 1018.4
20260831002754 77 195 0.0 2.0 0.00 0.00 0.00 92 1018.5
20260831002400 77 195 0.0 2.0 0.00 0.00 0.00 92 1018.5
20260831001755 77 0 0.0 0.0 0.00 0.00 0.00 91 1018.5
20260831001519 77 0 0.0 1.0 0.00 0.00 0.00 90 1018.5
20260831001359 77 0 0.0 1.0 0.00 0.00 0.00 90 1018.5
20260831000755 78 0 0.0 1.0 0.00 0.00 0.00 90 1018.5
20260831000255 78 0 0.0 1.0 0.00 0.00 0.00 90 1018.5
20260831000018 78 0 0.0 1.0 0.00 0.00 0.00 90 1018.5
20260830235900 78 0 0.0 1.0 0.00 0.00 0.00 90 1018.5
20260830235520 78 0 0.0 0.0 0.00 0.00 0.00 89 1018.5
20260830234755 78 0 0.0 1.0 0.00 0.00 0.00 89 1018.5
20260830234355 79 0 0.0 1.0 0.00 0.00 0.00 88 1018.7
20260830234255 79 0 0.0 1.0 0.00 0.00 0.00 88 1018.6
20260830234037 80 0 0.0 1.0 0.00 0.00 0.00 87 1018.5
20260830234007 79 0 0.0 1.0 0.00 0.00 0.00 88 1018.7
20260830233805 79 0 0.0 1.0 0.00 0.00 0.00 87 1018.6
20260830233706 80 0 0.0 1.0 0.00 0.00 0.00 87 1018.6
20260830233608 80 0 0.0 0.0 0.00 0.00 0.00 87 1018.6
20260830233516 80 0 0.0 1.0 0.00 0.00 0.00 87 1018.5
20260830231752 80 0 0.0 1.0 0.00 0.00 0.00 87 1018.5
20260830231256 80 292 0.0 1.0 0.00 0.00 0.00 86 1018.6
20260830230754 80 201 0.0 1.0 0.00 0.00 0.00 84 1018.7
20260830230254 80 0 0.0 1.0 0.00 0.00 0.00 84 1018.7
20260830225748 81 0 0.0 0.0 0.00 0.00 0.00 83 1018.8
20260830225244 81 0 0.0 0.0 0.00 0.00 0.00 84 1018.9
20260830224745 81 0 0.0 0.0 0.00 0.00 0.00 84 1018.9
20260830224245 81 0 0.0 1.0 0.00 0.00 0.00 84 1019.0
20260830223744 81 0 0.0 1.0 0.00 0.00 0.00 84 1019.0
20260830223245 82 0 0.0 1.0 0.00 0.00 0.00 83 1018.9
20260830223008 82 226 0.0 1.0 0.00 0.00 0.00 81 1018.8
20260830222850 82 226 0.0 1.0 0.00 0.00 0.00 81 1018.8
20260830222247 82 0 0.0 0.0 0.00 0.00 0.00 82 1018.8
20260830222008 82 0 0.0 1.0 0.00 0.00 0.00 81 1018.8
20260830221851 82 0 0.0 1.0 0.00 0.00 0.00 81 1018.8
20260830221246 82 0 0.0 1.0 0.00 0.00 0.00 80 1018.9
20260830220745 83 0 0.0 1.0 0.00 0.00 0.00 80 1019.0
20260830220246 83 0 0.0 2.0 0.00 0.00 0.00 79 1019.0
20260830215745 83 241 0.0 2.0 0.00 0.00 0.00 78 1019.0
20260830215239 83 0 0.0 1.0 0.00 0.00 0.00 78 1019.0
20260830215004 83 0 0.0 1.0 0.00 0.00 0.00 78 1018.9
20260830214844 83 0 0.0 1.0 0.00 0.00 0.00 78 1018.9
20260830214240 83 226 0.0 1.0 0.00 0.00 0.00 78 1018.8
20260830214006 84 0 0.0 1.0 0.00 0.00 0.00 78 1018.8
20260830213844 84 0 0.0 1.0 0.00 0.00 0.00 78 1018.8
20260830213506 84 0 0.0 2.0 0.00 0.00 0.00 78 1018.8
20260830213345 84 0 0.0 2.0 0.00 0.00 0.00 78 1018.8
20260830212740 84 0 0.0 2.0 0.00 0.00 0.00 78 1018.9
20260830212243 84 0 0.0 2.0 0.00 0.00 0.00 76 1018.9
20260830211737 85 0 0.0 1.0 0.00 0.00 0.00 74 1018.8
20260830211238 85 0 0.0 2.0 0.00 0.00 0.00 74 1018.7
20260830210735 85 0 0.0 2.0 0.00 0.00 0.00 74 1018.7
20260830210232 86 222 0.0 2.0 0.00 0.00 0.00 73 1018.7
20260830205731 86 0 0.0 2.0 0.00 0.00 0.00 70 1018.7
20260830205450 86 225 0.0 2.0 0.00 0.00 0.00 69 1018.7
20260830205335 86 225 0.0 2.0 0.00 0.00 0.00 69 1018.7
20260830204728 86 0 0.0 2.0 0.00 0.00 0.00 70 1018.7
20260830204447 87 235 0.0 3.0 0.00 0.00 0.00 68 1018.6
20260830204331 87 235 0.0 3.0 0.00 0.00 0.00 68 1018.6
20260830203726 86 0 0.0 3.0 0.00 0.00 0.00 67 1018.6
20260830203223 87 347 0.0 2.0 0.00 0.00 0.00 66 1018.7
20260830203155 86 0 1.0 3.0 0.00 0.00 0.00 69 1018.8
20260830202818 86 266 1.0 3.0 0.00 0.00 0.00 68 1018.7
20260830202326 86 0 1.0 3.0 0.00 0.00 0.00 69 1018.8
20260830201720 86 178 1.0 3.0 0.00 0.00 0.00 69 1019.0
20260830201217 87 197 1.0 2.0 0.00 0.00 0.00 66 1019.0
20260830200716 87 227 0.0 2.0 0.00 0.00 0.00 69 1019.0
20260830200216 87 237 0.0 2.0 0.00 0.00 0.00 69 1019.0
20260830195715 87 0 1.0 3.0 0.00 0.00 0.00 70 1019.0
20260830195212 87 118 1.0 3.0 0.00 0.00 0.00 67 1019.1
20260830194711 87 227 0.0 1.0 0.00 0.00 0.00 68 1019.3
20260830194208 87 0 0.0 2.0 0.00 0.00 0.00 68 1019.4
20260830193935 87 0 0.0 2.0 0.00 0.00 0.00 66 1019.5
20260830193815 87 0 0.0 2.0 0.00 0.00 0.00 66 1019.5
20260830193206 86 0 1.0 4.0 0.00 0.00 0.00 70 1019.5
20260830192705 86 0 2.0 5.0 0.00 0.00 0.00 67 1019.5
20260830192201 86 208 2.0 5.0 0.00 0.00 0.00 71 1019.5
20260830191702 85 173 2.0 5.0 0.00 0.00 0.00 69 1019.6
20260830191200 86 154 2.0 5.0 0.00 0.00 0.00 69 1019.7
20260830190703 87 161 2.0 4.0 0.00 0.00 0.00 67 1019.6
20260830190201 88 208 1.0 4.0 0.00 0.00 0.00 65 1019.7
20260830185658 88 0 0.0 4.0 0.00 0.00 0.00 68 1019.7
20260830185158 88 151 0.0 2.0 0.00 0.00 0.00 68 1019.7
20260830184658 87 0 0.0 2.0 0.00 0.00 0.00 66 1019.8
20260830184158 87 188 0.0 1.0 0.00 0.00 0.00 69 1019.8
20260830183658 86 0 0.0 2.0 0.00 0.00 0.00 67 1019.8
20260830183158 86 0 0.0 2.0 0.00 0.00 0.00 68 1019.9
20260830182905 86 0 0.0 2.0 0.00 0.02 0.00 71 1020.1
20260830182750 86 269 0.0 2.0 0.00 0.02 0.00 70 1020.1
20260830182306 86 0 0.0 2.0 0.00 0.02 0.00 71 1020.1
20260830181701 86 0 0.0 2.0 0.00 0.04 0.00 69 1020.3
20260830181201 86 31 0.0 2.0 0.00 0.06 0.00 69 1020.3
20260830180657 86 28 0.0 2.0 0.00 0.09 0.00 70 1020.4
20260830180153 85 0 0.0 2.0 0.00 0.13 0.00 72 1020.3
20260830175654 85 0 0.0 2.0 0.00 0.21 0.00 72 1020.3
20260830175154 85 246 0.0 2.0 0.00 0.28 0.00 73 1020.3
20260830174654 85 0 0.0 2.0 0.00 0.31 0.00 73 1020.4
20260830174154 85 341 0.0 1.0 0.00 0.35 0.00 73 1020.4
20260830173916 85 0 0.0 1.0 0.00 0.36 0.00 73 1020.5
20260830173758 85 0 0.0 1.0 0.00 0.36 0.00 73 1020.5
20260830173154 84 0 0.0 2.0 0.00 0.37 0.00 73 1020.6
20260830172655 84 0 0.0 2.0 0.00 0.40 0.00 76 1020.6
20260830172151 84 100 1.0 3.0 0.00 0.45 0.00 73 1020.7
20260830171913 83 339 1.0 3.0 0.00 0.53 0.00 74 1020.7
20260830171757 83 339 1.0 3.0 0.00 0.53 0.00 74 1020.7
20260830171153 83 131 1.0 3.0 0.00 0.68 0.00 74 1020.8
20260830170652 83 228 0.0 3.0 0.00 0.83 0.00 72 1020.8
20260830170152 83 0 1.0 4.0 0.00 0.87 0.00 74 1020.8
20260830165652 82 0 1.0 4.0 0.00 0.98 0.00 76 1020.8
20260830165416 82 109 2.0 4.0 0.00 1.17 0.00 76 1020.8
20260830165256 82 109 2.0 4.0 0.00 1.17 0.00 76 1020.8
20260830164914 83 0 2.0 4.0 0.00 1.25 0.00 74 1020.9
20260830164756 83 0 2.0 4.0 0.00 1.25 0.00 74 1020.9
20260830164153 84 68 1.0 4.0 0.00 1.26 0.00 72 1020.9
20260830163654 83 222 0.0 2.0 0.00 1.27 0.00 74 1020.9
20260830163150 83 322 0.0 3.0 0.00 1.27 0.00 74 1020.9
20260830162653 83 266 0.0 3.0 0.00 1.27 0.00 75 1021.0
20260830162146 82 0 1.0 4.0 0.00 1.27 0.00 75 1021.1
20260830161647 82 0 1.0 4.0 0.00 1.27 0.00 77 1021.2
20260830161356 81 144 2.0 5.0 0.00 1.27 0.00 78 1021.4
20260830161236 82 148 1.0 5.0 0.00 1.27 0.00 78 1021.3
20260830160747 81 144 2.0 5.0 0.00 1.27 0.00 78 1021.4
20260830160142 81 115 1.0 5.0 0.00 1.27 0.00 78 1021.5
20260830155639 81 212 1.0 3.0 0.00 1.27 0.00 76 1021.5
20260830155140 80 248 2.0 4.0 0.00 1.27 0.00 77 1021.4
20260830154637 80 124 2.0 6.0 0.00 1.27 0.00 77 1021.4
20260830154135 80 197 2.0 6.0 0.00 1.27 0.00 81 1021.5
20260830153634 80 108 2.0 6.0 0.00 1.27 0.00 80 1021.5
20260830153134 81 122 1.0 5.0 0.00 1.27 0.00 78 1021.6
20260830152631 81 63 1.0 4.0 0.00 1.27 0.00 80 1021.5
20260830152131 80 62 1.0 4.0 0.00 1.27 0.00 81 1021.6
20260830151628 80 20 0.0 2.0 0.00 1.27 0.00 83 1021.6
20260830151121 79 348 1.0 3.0 0.00 1.27 0.00 83 1021.7
20260830151058 79 0 1.0 3.0 0.00 1.27 0.00 83 1021.7
20260830150726 79 0 1.0 3.0 0.00 1.27 0.00 83 1021.7
20260830150120 79 309 1.0 2.0 0.00 1.27 0.00 83 1021.7
20260830145617 79 2 1.0 3.0 0.00 1.27 0.00 85 1021.7
20260830145116 79 0 1.0 3.0 0.00 1.27 0.00 85 1021.6
20260830144613 78 342 0.0 2.0 0.00 1.27 0.00 86 1021.6
20260830144340 78 0 0.0 2.0 0.00 1.27 0.00 86 1021.7
20260830144216 78 0 0.0 2.0 0.00 1.27 0.00 86 1021.7
20260830143610 78 69 0.0 2.0 0.00 1.27 0.00 86 1021.6
20260830143112 78 38 0.0 2.0 0.00 1.27 0.00 86 1021.6
20260830142610 78 0 1.0 2.0 0.00 1.27 0.00 85 1021.7
20260830142336 77 118 1.0 2.0 0.00 1.27 0.00 87 1021.8
20260830142214 77 118 1.0 2.0 0.00 1.27 0.00 87 1021.8
20260830141607 76 103 0.0 3.0 0.00 1.27 0.00 88 1021.8
20260830141109 75 0 1.0 3.0 0.00 1.27 0.00 91 1021.8
20260830140608 75 112 1.0 3.0 0.00 1.27 0.00 93 1021.9
20260830140107 75 88 0.0 1.0 0.00 1.27 0.00 94 1021.9
20260830135833 74 0 0.0 1.0 0.00 1.27 0.00 95 1022.0
20260830135712 74 0 0.0 1.0 0.00 1.27 0.00 95 1022.0
20260830135109 74 0 0.0 1.0 0.00 1.27 0.00 95 1022.1
20260830134608 74 0 1.0 3.0 0.00 1.27 0.00 96 1022.1
20260830134320 73 50 2.0 4.0 0.00 1.27 0.00 96 1022.1
20260830134159 73 50 2.0 4.0 0.00 1.27 0.00 96 1022.1
20260830133543 73 99 2.0 4.0 0.00 1.27 0.00 97 1022.1
20260830133027 73 82 2.0 4.0 0.00 1.27 0.00 97 1022.1
20260830132510 73 0 2.0 3.0 0.00 1.27 0.00 97 1022.1
20260830131957 73 82 2.0 4.0 0.00 1.27 0.00 97 1022.1
20260830131440 73 0 2.0 4.0 0.00 1.27 0.00 97 1022.0
20260830130938 72 136 2.0 5.0 0.00 1.27 0.00 97 1021.9
20260830130427 72 104 3.0 5.0 0.00 1.27 0.00 97 1021.9
20260830125910 72 106 3.0 4.0 0.00 1.27 0.00 98 1021.9
20260830125408 72 106 2.0 4.0 0.00 1.27 0.00 98 1021.9
20260830125129 72 118 1.0 3.0 0.00 1.27 0.00 98 1021.8
20260830125014 72 118 1.0 3.0 0.00 1.27 0.00 98 1021.8
20260830124632 72 129 1.0 3.0 0.00 1.27 0.00 98 1021.8
20260830124513 72 129 1.0 3.0 0.00 1.27 0.00 98 1021.8
20260830124119 72 62 1.0 3.0 0.00 1.27 0.00 98 1021.7
20260830124000 72 62 1.0 3.0 0.00 1.27 0.00 98 1021.7
20260830123340 72 88 0.0 2.0 0.00 1.27 0.00 98 1021.6
20260830122827 72 0 0.0 2.0 0.00 1.27 0.00 98 1021.6
20260830122533 72 126 1.0 2.0 0.00 1.27 0.00 98 1021.6
20260830122417 72 126 1.0 2.0 0.00 1.27 0.00 98 1021.6
20260830121808 72 0 1.0 2.0 0.00 1.27 0.00 98 1021.6
20260830121258 72 19 1.0 2.0 0.00 1.27 0.00 98 1021.6
20260830120742 72 129 0.0 2.0 0.00 1.27 0.00 98 1021.7
20260830120226 72 56 1.0 3.0 0.00 1.27 0.00 98 1021.7
20260830115715 72 94 1.0 3.0 0.00 1.27 0.00 98 1021.6
20260830115645 72 0 0.0 2.0 0.00 1.27 0.00 98 1021.5
20260830115300 72 0 0.0 2.0 0.00 1.27 0.00 98 1021.5